Voltar ao catálogo

NIGCOMSAT 1R

AtivoComunicaçõesGEO
NORAD 38014·PAYLOAD·🇳🇬 Nigeria

Lançado Dec 19, 2011 de Xichang Satellite Launch Center

Loading…

TLE

AtualizadoSource: Space-Track

Época: Sep 14, 2026, 14:00 UTC

1 38014U 11077A   26257.58350772  .00000137  00000-0  00000-0 0  9992
2 38014   0.0269 131.6037 0002574 201.2726 273.2717  1.00274594 53856

Acompanhe NIGCOMSAT 1R em tempo real com AllMySat

Download on the App Store